Flag Weather past 2 weeks in Garland, Texas, U.S.A.

Now
72 °F

Sunny.


Feels Like: 77 °F
Forecast: 50 / 76 °F
Wind: 6 mph from Southwest

Location: Mesquite Metro Airport

Current Time: Oct 30, 2014 at 1:14:30 PM

Latest Report: Oct 30, 2014 at 12:47 PM


Visibility: 10 mi

Pressure: 30.15 "Hg

Humidity: 41%

Dew point: 46 °F

Location of GarlandLocation

Historic Weather in Garland — Graph

°F

Garland temperature yesterday

Maximum temperature yesterday: 75 °F (at 1:50 PM)
Minimum temperature yesterday: 55 °F (at 11:15 PM)
Average temperature yesterday: 64 °F

Past Weeks' High & Low Weather Summary

 TemperatureHumidityPressure
High88 °F (Oct 16, 2:50 PM)100% (Oct 21, 7:50 AM)30.23 "Hg (Oct 21, 7:50 AM)
Low48 °F (Oct 30, 4:55 AM)22% (Oct 16, 2:50 PM)29.80 "Hg (Oct 27, 5:50 PM)
Average66 °F70%30.04 "Hg
* Reported Oct 15 11:50 AM — Oct 30 11:50 AM, Garland, Weather by CustomWeather, © 2014

Note: Actual official high and low records may vary slightly from our data, if they occured in-between our weather recording intervals... More about our weather records

Advertising

Garland weather history for previous 24 hours

 ConditionsComfort  
Time TempWeatherWind HumidityBarometerVisibility
11:50 AM
Oct 30
70 °FSunny.10 mph43%30.18 "Hg10 mi
10:47 AM66 °FSunny.7 mph49%30.19 "Hg10 mi
9:50 AM61 °FSunny.3 mph63%30.19 "Hg10 mi
8:50 AM54 °FSunny.No wind82%30.17 "Hg10 mi
7:47 AM48 °FClear.No wind87%30.16 "Hg10 mi
6:50 AM48 °FClear.3 mph87%30.14 "Hg10 mi
5:35 AM48 °FClear.3 mph84%30.13 "Hg10 mi
5:15 AM49 °FClear.No wind87%30.13 "Hg10 mi
4:55 AM48 °FClear.3 mph83%30.14 "Hg10 mi
4:35 AM50 °FClear.No wind80%30.14 "Hg10 mi
4:15 AM50 °FClear.No wind79%30.15 "Hg10 mi
3:55 AM50 °FClear.No wind80%30.15 "Hg10 mi
3:35 AM49 °FClear.No wind79%30.14 "Hg10 mi
3:15 AM51 °FClear.3 mph74%30.14 "Hg10 mi
2:55 AM52 °FClear.No wind72%30.15 "Hg10 mi
2:35 AM53 °FClear.No wind71%30.15 "Hg10 mi
2:15 AM52 °FClear.No wind73%30.15 "Hg10 mi
1:55 AM54 °FClear.No wind69%30.15 "Hg10 mi
1:35 AM54 °FClear.3 mph70%30.15 "Hg10 mi
1:15 AM53 °FClear.3 mph72%30.15 "Hg10 mi
12:55 AM54 °FClear.No wind68%30.15 "Hg10 mi
12:35 AM51 °FClear.No wind75%30.15 "Hg10 mi
12:15 AM54 °FClear.No wind68%30.15 "Hg10 mi
11:55 PM
Oct 29
55 °FClear.5 mph65%30.15 "Hg10 mi
11:35 PM56 °FClear.No wind62%30.15 "Hg10 mi
11:15 PM55 °FClear.3 mph65%30.15 "Hg10 mi
10:55 PM56 °FClear.5 mph61%30.15 "Hg10 mi
10:15 PM58 °FClear.6 mph58%30.15 "Hg10 mi
9:55 PM58 °FClear.5 mph57%30.15 "Hg10 mi
7:55 PM64 °FClear.5 mph43%30.14 "Hg10 mi
6:50 PM68 °FSunny.5 mph35%30.13 "Hg10 mi
5:50 PM73 °FSunny.6 mph29%30.13 "Hg10 mi
4:47 PM75 °FSunny.6 mph25%30.13 "Hg10 mi
3:50 PM75 °FSunny.6 mph27%30.13 "Hg10 mi
2:50 PM75 °FSunny.9 mph25%30.16 "Hg10 mi
1:50 PM75 °FSunny.10 mph31%30.18 "Hg10 mi
Weather by CustomWeather, © 2014

See weather overviewHow to use our weather pages